| time (UTC) | temp F | wind direction | speed MPH | gust MPH | rain 1hr in | rain 24hr in | rain mn in | humidity % | barometer mb |
| 20260508225023 | 77 | 344 | 2.0 | 12.0 | 0.00 | 0.00 | 0.00 | 20 | 1016.7 |
| 20260508224543 | 77 | 26 | 4.0 | 12.0 | 0.00 | 0.00 | 0.00 | 21 | 1016.7 |
| 20260508224024 | 76 | 14 | 3.0 | 12.0 | 0.00 | 0.00 | 0.00 | 21 | 1016.8 |
| 20260508223525 | 76 | 287 | 5.0 | 14.0 | 0.00 | 0.00 | 0.00 | 21 | 1016.8 |
| 20260508223040 | 76 | 19 | 4.0 | 14.0 | 0.00 | 0.00 | 0.00 | 21 | 1016.7 |
| 20260508222524 | 77 | 5 | 5.0 | 14.0 | 0.00 | 0.00 | 0.00 | 20 | 1016.8 |
| 20260508222024 | 76 | 352 | 5.0 | 14.0 | 0.00 | 0.00 | 0.00 | 22 | 1016.8 |
| 20260508221545 | 76 | 11 | 4.0 | 14.0 | 0.00 | 0.00 | 0.00 | 21 | 1016.8 |
| 20260508221029 | 76 | 54 | 4.0 | 14.0 | 0.00 | 0.00 | 0.00 | 21 | 1017.1 |
| 20260508220525 | 76 | 42 | 5.0 | 12.0 | 0.00 | 0.00 | 0.00 | 21 | 1016.8 |
| 20260508220046 | 76 | 49 | 4.0 | 11.0 | 0.00 | 0.00 | 0.00 | 22 | 1017.0 |
| 20260508215524 | 76 | 13 | 3.0 | 15.0 | 0.00 | 0.00 | 0.00 | 22 | 1017.0 |
| 20260508215026 | 75 | 30 | 4.0 | 15.0 | 0.00 | 0.00 | 0.00 | 22 | 1017.2 |
| 20260508214543 | 75 | 40 | 6.0 | 15.0 | 0.00 | 0.00 | 0.00 | 22 | 1017.3 |
| 20260508214024 | 75 | 28 | 6.0 | 14.0 | 0.00 | 0.00 | 0.00 | 22 | 1017.3 |
| 20260508213524 | 75 | 34 | 5.0 | 14.0 | 0.00 | 0.00 | 0.00 | 22 | 1017.1 |
| 20260508213040 | 76 | 352 | 4.0 | 12.0 | 0.00 | 0.00 | 0.00 | 22 | 1017.2 |
| 20260508212524 | 75 | 352 | 4.0 | 17.0 | 0.00 | 0.00 | 0.00 | 22 | 1017.3 |
| 20260508212024 | 75 | 294 | 4.0 | 17.0 | 0.00 | 0.00 | 0.00 | 22 | 1017.2 |
| 20260508211541 | 75 | 346 | 7.0 | 17.0 | 0.00 | 0.00 | 0.00 | 22 | 1017.1 |
| 20260508211028 | 75 | 19 | 4.0 | 15.0 | 0.00 | 0.00 | 0.00 | 22 | 1017.5 |
| 20260508210524 | 75 | 5 | 6.0 | 15.0 | 0.00 | 0.00 | 0.00 | 22 | 1017.5 |
| 20260508210039 | 75 | 42 | 6.0 | 14.0 | 0.00 | 0.00 | 0.00 | 21 | 1017.4 |
| 20260508205524 | 75 | 90 | 3.0 | 14.0 | 0.00 | 0.00 | 0.00 | 23 | 1017.5 |
| 20260508205024 | 75 | 342 | 5.0 | 14.0 | 0.00 | 0.00 | 0.00 | 22 | 1017.6 |
| 20260508204550 | 75 | 360 | 4.0 | 14.0 | 0.00 | 0.00 | 0.00 | 23 | 1017.5 |
| 20260508204025 | 75 | 40 | 6.0 | 14.0 | 0.00 | 0.00 | 0.00 | 22 | 1017.6 |
| 20260508203525 | 75 | 325 | 4.0 | 16.0 | 0.00 | 0.00 | 0.00 | 23 | 1017.6 |
| 20260508203051 | 75 | 12 | 5.0 | 16.0 | 0.00 | 0.00 | 0.00 | 23 | 1017.7 |
| 20260508202524 | 75 | 360 | 8.0 | 16.0 | 0.00 | 0.00 | 0.00 | 22 | 1017.8 |
| 20260508202025 | 75 | 42 | 3.0 | 12.0 | 0.00 | 0.00 | 0.00 | 22 | 1017.7 |
| 20260508201543 | 75 | 309 | 4.0 | 14.0 | 0.00 | 0.00 | 0.00 | 23 | 1017.7 |
| 20260508201024 | 75 | 342 | 5.0 | 14.0 | 0.00 | 0.00 | 0.00 | 23 | 1017.8 |
| 20260508200524 | 75 | 17 | 4.0 | 14.0 | 0.00 | 0.00 | 0.00 | 22 | 1017.7 |
| 20260508200049 | 75 | 297 | 5.0 | 14.0 | 0.00 | 0.00 | 0.00 | 22 | 1017.7 |
| 20260508195528 | 74 | 60 | 4.0 | 14.0 | 0.00 | 0.00 | 0.00 | 24 | 1017.7 |
| 20260508195027 | 74 | 19 | 6.0 | 14.0 | 0.00 | 0.00 | 0.00 | 23 | 1017.7 |
| 20260508194547 | 74 | 350 | 5.0 | 12.0 | 0.00 | 0.00 | 0.00 | 24 | 1017.8 |
| 20260508194024 | 74 | 319 | 3.0 | 12.0 | 0.00 | 0.00 | 0.00 | 24 | 1018.0 |
| 20260508193524 | 73 | 9 | 5.0 | 13.0 | 0.00 | 0.00 | 0.00 | 24 | 1017.9 |
| 20260508193046 | 74 | 22 | 4.0 | 15.0 | 0.00 | 0.00 | 0.00 | 23 | 1017.9 |
| 20260508192524 | 74 | 360 | 4.0 | 15.0 | 0.00 | 0.00 | 0.00 | 24 | 1017.9 |
| 20260508192024 | 74 | 30 | 5.0 | 15.0 | 0.00 | 0.00 | 0.00 | 24 | 1017.8 |
| 20260508191548 | 73 | 360 | 4.0 | 15.0 | 0.00 | 0.00 | 0.00 | 25 | 1017.9 |
| 20260508191024 | 73 | 360 | 4.0 | 15.0 | 0.00 | 0.00 | 0.00 | 25 | 1018.0 |
| 20260508190524 | 74 | 21 | 4.0 | 15.0 | 0.00 | 0.00 | 0.00 | 24 | 1018.2 |
| 20260508190043 | 74 | 341 | 5.0 | 15.0 | 0.00 | 0.00 | 0.00 | 24 | 1018.3 |
| 20260508185523 | 73 | 352 | 6.0 | 15.0 | 0.00 | 0.00 | 0.00 | 24 | 1018.3 |
| 20260508185023 | 73 | 303 | 6.0 | 15.0 | 0.00 | 0.00 | 0.00 | 23 | 1018.2 |
| 20260508184549 | 74 | 23 | 6.0 | 14.0 | 0.00 | 0.00 | 0.00 | 23 | 1018.1 |
| 20260508184024 | 73 | 323 | 5.0 | 15.0 | 0.00 | 0.00 | 0.00 | 24 | 1018.2 |
| 20260508183525 | 74 | 302 | 4.0 | 16.0 | 0.00 | 0.00 | 0.00 | 25 | 1018.2 |
| 20260508183039 | 73 | 265 | 4.0 | 16.0 | 0.00 | 0.00 | 0.00 | 25 | 1018.2 |
| 20260508182524 | 74 | 352 | 7.0 | 16.0 | 0.00 | 0.00 | 0.00 | 24 | 1018.2 |
| 20260508182023 | 74 | 296 | 4.0 | 12.0 | 0.00 | 0.00 | 0.00 | 25 | 1018.2 |
| 20260508181545 | 74 | 300 | 5.0 | 14.0 | 0.00 | 0.00 | 0.00 | 25 | 1018.3 |
| 20260508181024 | 74 | 352 | 5.0 | 17.0 | 0.00 | 0.00 | 0.00 | 26 | 1018.4 |
| 20260508180523 | 74 | 22 | 6.0 | 17.0 | 0.00 | 0.00 | 0.00 | 25 | 1018.4 |
| 20260508180046 | 74 | 84 | 5.0 | 12.0 | 0.00 | 0.00 | 0.00 | 25 | 1018.4 |
| 20260508175524 | 74 | 266 | 5.0 | 12.0 | 0.00 | 0.00 | 0.00 | 25 | 1018.5 |
| 20260508175023 | 74 | 352 | 4.0 | 11.0 | 0.00 | 0.00 | 0.00 | 26 | 1018.4 |
| 20260508174548 | 73 | 17 | 2.0 | 16.0 | 0.00 | 0.00 | 0.00 | 27 | 1018.4 |
| 20260508174024 | 71 | 29 | 8.0 | 16.0 | 0.00 | 0.00 | 0.00 | 27 | 1018.5 |
| 20260508173524 | 71 | 65 | 7.0 | 14.0 | 0.00 | 0.00 | 0.00 | 29 | 1018.5 |
| 20260508173046 | 71 | 13 | 2.0 | 11.0 | 0.00 | 0.00 | 0.00 | 31 | 1018.7 |
| 20260508172525 | 71 | 46 | 5.0 | 11.0 | 0.00 | 0.00 | 0.00 | 30 | 1018.7 |
| 20260508172023 | 71 | 301 | 3.0 | 13.0 | 0.00 | 0.00 | 0.00 | 32 | 1018.6 |
| 20260508171540 | 71 | 5 | 5.0 | 13.0 | 0.00 | 0.00 | 0.00 | 31 | 1018.6 |
| 20260508171031 | 71 | 352 | 2.0 | 11.0 | 0.00 | 0.00 | 0.00 | 32 | 1018.6 |
| 20260508170523 | 71 | 13 | 3.0 | 12.0 | 0.00 | 0.00 | 0.00 | 33 | 1018.6 |
| 20260508170044 | 71 | 18 | 3.0 | 12.0 | 0.00 | 0.00 | 0.00 | 34 | 1018.7 |
| 20260508165524 | 71 | 33 | 3.0 | 14.0 | 0.00 | 0.00 | 0.00 | 33 | 1018.5 |
| 20260508165023 | 70 | 307 | 4.0 | 14.0 | 0.00 | 0.00 | 0.00 | 33 | 1018.5 |
| 20260508164546 | 70 | 21 | 4.0 | 10.0 | 0.00 | 0.00 | 0.00 | 32 | 1018.3 |
| 20260508164024 | 70 | 22 | 3.0 | 10.0 | 0.00 | 0.00 | 0.00 | 32 | 1018.4 |
| 20260508163521 | 70 | 41 | 6.0 | 10.0 | 0.00 | 0.00 | 0.00 | 32 | 1018.3 |
| 20260508163042 | 69 | 101 | 3.0 | 10.0 | 0.00 | 0.00 | 0.00 | 34 | 1018.1 |
| 20260508162524 | 69 | 38 | 1.0 | 10.0 | 0.00 | 0.00 | 0.00 | 34 | 1018.2 |
| 20260508162020 | 69 | 53 | 4.0 | 10.0 | 0.00 | 0.00 | 0.00 | 32 | 1018.2 |
| 20260508161547 | 69 | 26 | 2.0 | 8.0 | 0.00 | 0.00 | 0.00 | 34 | 1018.2 |
| 20260508161024 | 70 | 32 | 3.0 | 6.0 | 0.00 | 0.00 | 0.00 | 33 | 1018.1 |
| 20260508160523 | 69 | 352 | 1.0 | 6.0 | 0.00 | 0.00 | 0.00 | 33 | 1018.2 |
| 20260508160049 | 69 | 46 | 2.0 | 6.0 | 0.00 | 0.00 | 0.00 | 35 | 1018.1 |
| 20260508155532 | 69 | 32 | 2.0 | 6.0 | 0.00 | 0.00 | 0.00 | 34 | 1018.2 |
| 20260508155024 | 69 | 0 | 2.0 | 4.0 | 0.00 | 0.00 | 0.00 | 34 | 1018.2 |
| 20260508154550 | 68 | 0 | 0.0 | 4.0 | 0.00 | 0.00 | 0.00 | 36 | 1018.2 |
| 20260508154023 | 68 | 206 | 2.0 | 4.0 | 0.00 | 0.00 | 0.00 | 36 | 1018.2 |
| 20260508153524 | 67 | 0 | 0.0 | 4.0 | 0.00 | 0.00 | 0.00 | 37 | 1018.2 |
| 20260508153043 | 67 | 175 | 1.0 | 4.0 | 0.00 | 0.00 | 0.00 | 37 | 1018.3 |
| 20260508152523 | 67 | 175 | 1.0 | 3.0 | 0.00 | 0.00 | 0.00 | 38 | 1018.1 |
| 20260508152023 | 66 | 0 | 0.0 | 3.0 | 0.00 | 0.00 | 0.00 | 40 | 1018.1 |
| 20260508151545 | 65 | 0 | 0.0 | 3.0 | 0.00 | 0.00 | 0.00 | 42 | 1018.1 |
| 20260508151028 | 64 | 175 | 0.0 | 4.0 | 0.00 | 0.00 | 0.00 | 42 | 1018.0 |
| 20260508150524 | 64 | 175 | 1.0 | 4.0 | 0.00 | 0.00 | 0.00 | 43 | 1018.0 |
| 20260508150043 | 64 | 175 | 2.0 | 4.0 | 0.00 | 0.00 | 0.00 | 42 | 1017.9 |
| 20260508145524 | 64 | 175 | 2.0 | 4.0 | 0.00 | 0.00 | 0.00 | 42 | 1018.0 |
| 20260508145026 | 63 | 175 | 1.0 | 6.0 | 0.00 | 0.00 | 0.00 | 43 | 1018.0 |
| 20260508144541 | 63 | 177 | 1.0 | 6.0 | 0.00 | 0.00 | 0.00 | 40 | 1017.8 |
| 20260508144024 | 63 | 179 | 1.0 | 4.0 | 0.00 | 0.00 | 0.00 | 41 | 1017.8 |
| 20260508143524 | 63 | 180 | 2.0 | 4.0 | 0.00 | 0.00 | 0.00 | 41 | 1017.9 |
| 20260508143055 | 63 | 180 | 2.0 | 4.0 | 0.00 | 0.00 | 0.00 | 41 | 1017.7 |
| 20260508142528 | 63 | 254 | 1.0 | 3.0 | 0.00 | 0.00 | 0.00 | 40 | 1017.8 |
| 20260508142027 | 62 | 0 | 0.0 | 3.0 | 0.00 | 0.00 | 0.00 | 42 | 1017.6 |
| 20260508141545 | 61 | 0 | 0.0 | 3.0 | 0.00 | 0.00 | 0.00 | 43 | 1017.8 |
| 20260508141025 | 60 | 280 | 0.0 | 3.0 | 0.00 | 0.00 | 0.00 | 46 | 1017.8 |
| 20260508140523 | 60 | 280 | 1.0 | 3.0 | 0.00 | 0.00 | 0.00 | 46 | 1017.5 |
| 20260508140052 | 59 | 0 | 0.0 | 2.0 | 0.00 | 0.00 | 0.00 | 48 | 1017.6 |
| 20260508135523 | 58 | 0 | 0.0 | 0.0 | 0.00 | 0.00 | 0.00 | 50 | 1017.6 |
| 20260508135024 | 57 | 0 | 0.0 | 0.0 | 0.00 | 0.00 | 0.00 | 52 | 1017.6 |
| 20260508134547 | 55 | 0 | 0.0 | 0.0 | 0.00 | 0.00 | 0.00 | 55 | 1017.5 |
| 20260508134024 | 54 | 0 | 0.0 | 0.0 | 0.00 | 0.00 | 0.00 | 59 | 1017.5 |
| 20260508133524 | 53 | 0 | 0.0 | 0.0 | 0.00 | 0.00 | 0.00 | 60 | 1017.4 |
| 20260508133040 | 52 | 0 | 0.0 | 0.0 | 0.00 | 0.00 | 0.00 | 62 | 1017.3 |
| 20260508132527 | 50 | 0 | 0.0 | 0.0 | 0.00 | 0.00 | 0.00 | 64 | 1017.4 |
| 20260508132024 | 49 | 0 | 0.0 | 0.0 | 0.00 | 0.00 | 0.00 | 66 | 1017.3 |
| 20260508131540 | 48 | 0 | 0.0 | 0.0 | 0.00 | 0.00 | 0.00 | 67 | 1017.4 |
| 20260508131024 | 48 | 0 | 0.0 | 0.0 | 0.00 | 0.00 | 0.00 | 67 | 1017.3 |
| 20260508130523 | 48 | 0 | 0.0 | 0.0 | 0.00 | 0.00 | 0.00 | 66 | 1017.1 |
| 20260508130100 | 48 | 0 | 0.0 | 0.0 | 0.00 | 0.00 | 0.00 | 66 | 1017.1 |
| 20260508125526 | 48 | 0 | 0.0 | 0.0 | 0.00 | 0.00 | 0.00 | 65 | 1017.1 |
| 20260508125025 | 48 | 0 | 0.0 | 0.0 | 0.00 | 0.00 | 0.00 | 64 | 1017.1 |
| 20260508124934 | 48 | 0 | 0.0 | 0.0 | 0.00 | 0.00 | 0.00 | 64 | 1017.0 |
| 20260508100523 | 48 | 0 | 0.0 | 0.0 | 0.00 | 0.00 | 0.00 | 65 | 1016.1 |
| 20260508100044 | 48 | 0 | 0.0 | 0.0 | 0.00 | 0.00 | 0.00 | 65 | 1016.1 |
| 20260508095524 | 48 | 0 | 0.0 | 0.0 | 0.00 | 0.00 | 0.00 | 65 | 1016.1 |
| 20260508095027 | 48 | 0 | 0.0 | 0.0 | 0.00 | 0.00 | 0.00 | 65 | 1016.1 |
| 20260508094546 | 48 | 0 | 0.0 | 0.0 | 0.00 | 0.00 | 0.00 | 65 | 1016.1 |
| 20260508094024 | 49 | 0 | 0.0 | 0.0 | 0.00 | 0.00 | 0.00 | 65 | 1016.1 |
| 20260508093524 | 49 | 0 | 0.0 | 0.0 | 0.00 | 0.00 | 0.00 | 64 | 1016.1 |
| 20260508093053 | 50 | 0 | 0.0 | 0.0 | 0.00 | 0.00 | 0.00 | 62 | 1016.0 |
| 20260508092524 | 50 | 0 | 0.0 | 0.0 | 0.00 | 0.00 | 0.00 | 59 | 1016.0 |
| 20260508092024 | 51 | 0 | 0.0 | 0.0 | 0.00 | 0.00 | 0.00 | 58 | 1016.0 |
| 20260508091556 | 52 | 0 | 0.0 | 0.0 | 0.00 | 0.00 | 0.00 | 56 | 1015.9 |
| 20260508091024 | 52 | 0 | 0.0 | 0.0 | 0.00 | 0.00 | 0.00 | 53 | 1016.0 |
| 20260508090526 | 53 | 0 | 0.0 | 0.0 | 0.00 | 0.00 | 0.00 | 54 | 1015.9 |
| 20260508090058 | 53 | 0 | 0.0 | 1.0 | 0.00 | 0.00 | 0.00 | 52 | 1015.9 |
| 20260508085523 | 54 | 0 | 0.0 | 1.0 | 0.00 | 0.00 | 0.00 | 49 | 1015.9 |
| 20260508085028 | 55 | 0 | 0.0 | 1.0 | 0.00 | 0.00 | 0.00 | 48 | 1016.0 |
| 20260508084543 | 55 | 0 | 0.0 | 2.0 | 0.00 | 0.00 | 0.00 | 48 | 1016.1 |
| 20260508084026 | 55 | 284 | 0.0 | 3.0 | 0.00 | 0.00 | 0.00 | 47 | 1016.1 |
| 20260508083523 | 55 | 0 | 0.0 | 6.0 | 0.00 | 0.00 | 0.00 | 48 | 1016.0 |
| 20260508083044 | 54 | 284 | 1.0 | 6.0 | 0.00 | 0.00 | 0.00 | 49 | 1016.0 |
| 20260508082527 | 52 | 293 | 1.0 | 3.0 | 0.00 | 0.00 | 0.00 | 52 | 1016.0 |
| 20260508082024 | 52 | 0 | 0.0 | 2.0 | 0.00 | 0.00 | 0.00 | 55 | 1016.0 |
| 20260508081553 | 52 | 0 | 0.0 | 4.0 | 0.00 | 0.00 | 0.00 | 56 | 1016.0 |
| 20260508081025 | 52 | 293 | 0.0 | 4.0 | 0.00 | 0.00 | 0.00 | 55 | 1015.9 |
| 20260508080524 | 51 | 293 | 1.0 | 4.0 | 0.00 | 0.00 | 0.00 | 56 | 1016.0 |
| 20260508080050 | 51 | 0 | 0.0 | 1.0 | 0.00 | 0.00 | 0.00 | 58 | 1016.0 |
| 20260508075523 | 51 | 0 | 0.0 | 0.0 | 0.00 | 0.00 | 0.00 | 58 | 1016.0 |
| 20260508075024 | 51 | 0 | 0.0 | 2.0 | 0.00 | 0.00 | 0.00 | 58 | 1016.0 |
| 20260508074544 | 52 | 0 | 0.0 | 2.0 | 0.00 | 0.00 | 0.00 | 58 | 1016.0 |
| 20260508074024 | 52 | 293 | 0.0 | 2.0 | 0.00 | 0.00 | 0.00 | 57 | 1016.1 |
| 20260508073523 | 52 | 0 | 0.0 | 2.0 | 0.00 | 0.00 | 0.00 | 58 | 1016.1 |
| 20260508073047 | 52 | 293 | 0.0 | 2.0 | 0.00 | 0.00 | 0.00 | 56 | 1016.1 |
| 20260508072523 | 52 | 0 | 0.0 | 2.0 | 0.00 | 0.00 | 0.00 | 57 | 1016.0 |
| 20260508072024 | 52 | 0 | 0.0 | 2.0 | 0.00 | 0.00 | 0.00 | 57 | 1016.1 |
| 20260508071555 | 52 | 0 | 0.0 | 2.0 | 0.00 | 0.00 | 0.00 | 57 | 1016.0 |
| 20260508071024 | 53 | 293 | 0.0 | 1.0 | 0.00 | 0.00 | 0.00 | 55 | 1016.1 |
| 20260508070527 | 54 | 0 | 0.0 | 1.0 | 0.00 | 0.00 | 0.00 | 52 | 1016.2 |
| 20260508070052 | 54 | 0 | 0.0 | 1.0 | 0.00 | 0.00 | 0.00 | 51 | 1016.1 |
| 20260508065527 | 55 | 0 | 0.0 | 1.0 | 0.00 | 0.00 | 0.00 | 50 | 1016.1 |
| 20260508065025 | 56 | 0 | 0.0 | 0.0 | 0.00 | 0.00 | 0.00 | 48 | 1016.0 |
| 20260508064539 | 57 | 0 | 0.0 | 1.0 | 0.00 | 0.00 | 0.00 | 47 | 1016.0 |
| 20260508064024 | 57 | 0 | 0.0 | 7.0 | 0.00 | 0.00 | 0.00 | 45 | 1015.7 |
| 20260508063524 | 57 | 0 | 0.0 | 7.0 | 0.00 | 0.00 | 0.00 | 46 | 1015.6 |
| 20260508063046 | 55 | 293 | 2.0 | 5.0 | 0.00 | 0.00 | 0.00 | 49 | 1015.8 |
| 20260508062527 | 55 | 0 | 0.0 | 2.0 | 0.00 | 0.00 | 0.00 | 52 | 1015.7 |
| 20260508062025 | 55 | 215 | 0.0 | 2.0 | 0.00 | 0.00 | 0.00 | 50 | 1015.7 |
| 20260508061546 | 55 | 215 | 0.0 | 2.0 | 0.00 | 0.00 | 0.00 | 51 | 1015.6 |
| 20260508061024 | 56 | 215 | 0.0 | 2.0 | 0.00 | 0.00 | 0.00 | 49 | 1015.7 |
| 20260508060525 | 56 | 0 | 0.0 | 2.0 | 0.00 | 0.00 | 0.00 | 49 | 1015.7 |
| 20260508060045 | 56 | 0 | 0.0 | 1.0 | 0.00 | 0.00 | 0.00 | 48 | 1015.7 |
| 20260508055523 | 56 | 0 | 0.0 | 2.0 | 0.00 | 0.00 | 0.00 | 49 | 1015.6 |
| 20260508055024 | 57 | 0 | 0.0 | 2.0 | 0.00 | 0.00 | 0.00 | 48 | 1015.5 |
| 20260508054550 | 57 | 0 | 0.0 | 2.0 | 0.00 | 0.00 | 0.00 | 47 | 1015.4 |
| 20260508054024 | 57 | 0 | 0.0 | 1.0 | 0.00 | 0.00 | 0.00 | 46 | 1015.5 |
| 20260508053530 | 58 | 0 | 0.0 | 3.0 | 0.00 | 0.00 | 0.00 | 47 | 1015.6 |
| 20260508053044 | 58 | 0 | 0.0 | 3.0 | 0.00 | 0.00 | 0.00 | 46 | 1015.5 |
| 20260508052525 | 58 | 0 | 1.0 | 3.0 | 0.00 | 0.00 | 0.00 | 46 | 1015.5 |
| 20260508052023 | 57 | 217 | 0.0 | 3.0 | 0.00 | 0.00 | 0.00 | 48 | 1015.5 |
| 20260508051542 | 58 | 0 | 0.0 | 3.0 | 0.00 | 0.00 | 0.00 | 47 | 1015.4 |
| 20260508051024 | 58 | 0 | 1.0 | 5.0 | 0.00 | 0.00 | 0.00 | 46 | 1015.4 |
| 20260508050523 | 58 | 217 | 1.0 | 5.0 | 0.00 | 0.00 | 0.00 | 46 | 1015.3 |
| 20260508050046 | 58 | 216 | 2.0 | 5.0 | 0.00 | 0.00 | 0.00 | 46 | 1015.4 |
| 20260508045523 | 57 | 186 | 1.0 | 3.0 | 0.00 | 0.00 | 0.00 | 47 | 1015.4 |
| 20260508045023 | 57 | 186 | 0.0 | 1.0 | 0.00 | 0.00 | 0.00 | 49 | 1015.4 |
| 20260508044548 | 57 | 0 | 0.0 | 1.0 | 0.00 | 0.00 | 0.00 | 48 | 1015.4 |
| 20260508044022 | 58 | 0 | 0.0 | 1.0 | 0.00 | 0.00 | 0.00 | 48 | 1015.3 |
| 20260508043524 | 58 | 0 | 0.0 | 1.0 | 0.00 | 0.00 | 0.00 | 47 | 1015.4 |
| 20260508043045 | 58 | 0 | 0.0 | 2.0 | 0.00 | 0.00 | 0.00 | 47 | 1015.4 |
| 20260508042523 | 58 | 0 | 0.0 | 2.0 | 0.00 | 0.00 | 0.00 | 46 | 1015.5 |
| 20260508042024 | 59 | 0 | 0.0 | 2.0 | 0.00 | 0.00 | 0.00 | 46 | 1015.4 |
| 20260508041541 | 59 | 0 | 0.0 | 2.0 | 0.00 | 0.00 | 0.00 | 46 | 1015.5 |
| 20260508041022 | 59 | 186 | 0.0 | 3.0 | 0.00 | 0.00 | 0.00 | 46 | 1015.4 |
| 20260508040522 | 59 | 0 | 0.0 | 3.0 | 0.00 | 0.00 | 0.00 | 47 | 1015.4 |
| 20260508040038 | 59 | 186 | 0.0 | 3.0 | 0.00 | 0.00 | 0.00 | 46 | 1015.4 |
| 20260508035524 | 59 | 186 | 1.0 | 3.0 | 0.00 | 0.00 | 0.00 | 46 | 1015.4 |
| 20260508035024 | 60 | 0 | 0.0 | 4.0 | 0.00 | 0.00 | 0.00 | 45 | 1015.3 |
| 20260508034544 | 60 | 186 | 0.0 | 4.0 | 0.00 | 0.00 | 0.00 | 44 | 1015.2 |
| 20260508034024 | 60 | 176 | 1.0 | 3.0 | 0.00 | 0.00 | 0.00 | 43 | 1015.2 |
| 20260508033523 | 60 | 148 | 0.0 | 2.0 | 0.00 | 0.00 | 0.00 | 43 | 1015.3 |
| 20260508033106 | 60 | 0 | 0.0 | 1.0 | 0.00 | 0.00 | 0.00 | 43 | 1015.2 |
| 20260508032524 | 61 | 0 | 0.0 | 2.0 | 0.00 | 0.00 | 0.00 | 42 | 1015.2 |
| 20260508032025 | 62 | 0 | 0.0 | 2.0 | 0.00 | 0.00 | 0.00 | 42 | 1015.2 |
| 20260508031541 | 62 | 148 | 1.0 | 2.0 | 0.00 | 0.00 | 0.00 | 40 | 1015.1 |
| 20260508031024 | 61 | 148 | 1.0 | 3.0 | 0.00 | 0.00 | 0.00 | 40 | 1015.1 |
| 20260508030523 | 62 | 0 | 1.0 | 3.0 | 0.00 | 0.00 | 0.00 | 42 | 1015.0 |
| 20260508030042 | 64 | 0 | 0.0 | 2.0 | 0.00 | 0.00 | 0.00 | 38 | 1014.9 |
| 20260508025525 | 65 | 0 | 0.0 | 2.0 | 0.00 | 0.00 | 0.00 | 37 | 1014.9 |
| 20260508025022 | 66 | 0 | 0.0 | 2.0 | 0.00 | 0.00 | 0.00 | 34 | 1014.9 |
| 20260508024608 | 67 | 0 | 0.0 | 0.0 | 0.00 | 0.00 | 0.00 | 34 | 1015.1 |
| 20260508024024 | 68 | 0 | 0.0 | 0.0 | 0.00 | 0.00 | 0.00 | 34 | 1015.0 |
| 20260508023525 | 69 | 0 | 0.0 | 0.0 | 0.00 | 0.00 | 0.00 | 32 | 1014.7 |
| 20260508023045 | 69 | 0 | 0.0 | 0.0 | 0.00 | 0.00 | 0.00 | 31 | 1014.6 |
| 20260508022523 | 70 | 0 | 0.0 | 0.0 | 0.00 | 0.00 | 0.00 | 29 | 1014.7 |
| 20260508022024 | 71 | 0 | 0.0 | 0.0 | 0.00 | 0.00 | 0.00 | 27 | 1014.6 |
| 20260508021544 | 72 | 0 | 0.0 | 0.0 | 0.00 | 0.00 | 0.00 | 27 | 1014.7 |
| 20260508021024 | 72 | 0 | 0.0 | 0.0 | 0.00 | 0.00 | 0.00 | 27 | 1014.7 |
| 20260508020525 | 72 | 0 | 0.0 | 1.0 | 0.00 | 0.00 | 0.00 | 27 | 1014.7 |
| 20260508015524 | 72 | 0 | 0.0 | 5.0 | 0.00 | 0.00 | 0.00 | 26 | 1014.7 |
| 20260508015024 | 72 | 148 | 1.0 | 5.0 | 0.00 | 0.00 | 0.00 | 26 | 1014.6 |
| 20260508014551 | 73 | 148 | 2.0 | 5.0 | 0.00 | 0.00 | 0.00 | 25 | 1014.6 |
| 20260508014025 | 73 | 128 | 1.0 | 8.0 | 0.00 | 0.00 | 0.00 | 25 | 1014.7 |
| 20260508013523 | 73 | 129 | 2.0 | 8.0 | 0.00 | 0.00 | 0.00 | 25 | 1014.6 |
| 20260508013040 | 74 | 84 | 3.0 | 8.0 | 0.00 | 0.00 | 0.00 | 25 | 1014.6 |
| 20260508012527 | 74 | 0 | 1.0 | 3.0 | 0.00 | 0.00 | 0.00 | 25 | 1014.6 |
| 20260508012022 | 74 | 91 | 0.0 | 4.0 | 0.00 | 0.00 | 0.00 | 24 | 1014.7 |
| 20260508011545 | 74 | 0 | 1.0 | 4.0 | 0.00 | 0.00 | 0.00 | 24 | 1014.8 |
| 20260508011023 | 74 | 90 | 1.0 | 4.0 | 0.00 | 0.00 | 0.00 | 24 | 1014.7 |
| 20260508010525 | 74 | 90 | 1.0 | 4.0 | 0.00 | 0.00 | 0.00 | 25 | 1014.7 |
| 20260508010043 | 74 | 92 | 1.0 | 5.0 | 0.00 | 0.00 | 0.00 | 24 | 1014.9 |
| 20260508005524 | 74 | 97 | 1.0 | 5.0 | 0.00 | 0.00 | 0.00 | 25 | 1014.7 |
| 20260508005027 | 73 | 100 | 2.0 | 4.0 | 0.00 | 0.00 | 0.00 | 25 | 1014.9 |
| 20260508004547 | 73 | 66 | 1.0 | 3.0 | 0.00 | 0.00 | 0.00 | 26 | 1014.9 |
| 20260508004026 | 73 | 0 | 0.0 | 3.0 | 0.00 | 0.00 | 0.00 | 26 | 1015.0 |
| 20260508003524 | 73 | 0 | 0.0 | 3.0 | 0.00 | 0.00 | 0.00 | 27 | 1015.2 |
| 20260508003045 | 73 | 64 | 0.0 | 4.0 | 0.00 | 0.00 | 0.00 | 25 | 1015.2 |
| 20260508002524 | 73 | 66 | 1.0 | 4.0 | 0.00 | 0.00 | 0.00 | 25 | 1015.2 |
| 20260508002024 | 73 | 66 | 0.0 | 4.0 | 0.00 | 0.00 | 0.00 | 26 | 1015.1 |
| 20260508001551 | 73 | 0 | 0.0 | 8.0 | 0.00 | 0.00 | 0.00 | 24 | 1015.2 |
| 20260508001025 | 73 | 67 | 2.0 | 8.0 | 0.00 | 0.00 | 0.00 | 25 | 1015.2 |
| 20260508000527 | 73 | 63 | 3.0 | 8.0 | 0.00 | 0.00 | 0.00 | 25 | 1015.2 |
| 20260508000041 | 73 | 109 | 2.0 | 7.0 | 0.00 | 0.00 | 0.00 | 25 | 1015.2 |
| 20260507235526 | 74 | 0 | 2.0 | 7.0 | 0.00 | 0.00 | 0.00 | 24 | 1015.3 |
| 20260507235027 | 74 | 51 | 3.0 | 7.0 | 0.00 | 0.00 | 0.00 | 25 | 1015.4 |
| 20260507234540 | 74 | 88 | 2.0 | 6.0 | 0.00 | 0.00 | 0.00 | 25 | 1015.4 |
| 20260507234024 | 75 | 42 | 1.0 | 5.0 | 0.00 | 0.00 | 0.00 | 24 | 1015.4 |
| 20260507233524 | 75 | 34 | 1.0 | 5.0 | 0.00 | 0.00 | 0.00 | 24 | 1015.5 |
| 20260507233040 | 75 | 18 | 1.0 | 7.0 | 0.00 | 0.00 | 0.00 | 24 | 1015.5 |
| 20260507232524 | 74 | 5 | 3.0 | 10.0 | 0.00 | 0.00 | 0.00 | 24 | 1015.6 |
| 20260507232028 | 74 | 54 | 2.0 | 10.0 | 0.00 | 0.00 | 0.00 | 24 | 1015.7 |
| 20260507231546 | 74 | 51 | 4.0 | 10.0 | 0.00 | 0.00 | 0.00 | 24 | 1015.8 |
| 20260507231024 | 74 | 0 | 2.0 | 8.0 | 0.00 | 0.00 | 0.00 | 25 | 1015.8 |
| 20260507230523 | 73 | 48 | 4.0 | 9.0 | 0.00 | 0.00 | 0.00 | 24 | 1016.0 |
| 20260507230046 | 74 | 72 | 4.0 | 9.0 | 0.00 | 0.00 | 0.00 | 24 | 1016.0 |
| 20260507225525 | 74 | 56 | 2.0 | 11.0 | 0.00 | 0.00 | 0.00 | 25 | 1016.0 |